Weather in Chikarevka

Russia / Tambov Oblast     51°55′31″N   41°35′16″E
temp.,
°C
wind,
m/s
gust,
m/s
humid.,
%
clouds,
%
prec.,
mm/h
press.,
hPa
HPBL,
m
14 june, mon
mon1400:00+16sse22913 0.0 101112
03:00+15se22933 0.0 101213
06:00+17ese12893 0.0 101389
09:00+22ese22750 0.1 1014589
12:00+24ese216074 0.6 10141281
15:00+26e2255100 0.8 10131662
18:00+23se2275100 1.2 1013129
21:00+19e1185100 1.8 101411
15 june, tue
tue1500:00+17ene2289100 0.0 101411
03:00+16ene2393100 0.0 101339
06:00+17ene2392100 0.0 1013136
09:00+21ene3479100 0.0 1013731
12:00+23ne456689 0.0 10121237
15:00+24ne456196 0.2 10101624
18:00+22ene358174 1.8 1010324
21:00+18n2289100 2.0 101013
16 june, wed
wed1600:00+17nw229266 0.0 100927
03:00+16nw229245 0.0 100921
06:00+18wnw249094 0.0 1010124
09:00+22wnw337694 0.0 1010571
12:00+26wnw346173 0.4 10111400
15:00+26wnw456369 2.1 10111402
18:00+24nw357795 2.3 1012212
21:00+20nnw369283 2.8 1014130
17 june, thu
thu1700:00+17nne411965 0.0 1015283
03:00+16nne511950 0.0 1017321
06:00+16nne510910 0.0 1019347
09:00+20ne57704 0.0 1020841
12:00+22ne56564 0.0 10211528
15:00+22ne67520 0.0 10211429
18:00+21ne47650 0.0 1022812
21:00+16nne34820 0.0 102467
18 june, fri
fri1800:00+14nne36790 0.0 102497
03:00+12nne37814 0.0 1025109
06:00+14nne398028 0.0 1026252
09:00+19ne57614 0.0 1027758
12:00+22ene56520 0.0 10271530
15:00+22ne45520 0.0 10271636
18:00+21ne35640 0.0 1027633
21:00+16ene33786 0.0 102827